Flag for Greenland Weather past 2 weeks in Ittoqqortoormiit, Greenland

Now
44 °F

Sunny.


Feels Like: 36 °F
Forecast: 34 / 41 °F
Wind: 16 mph from East

Location: Scoresbysund

Current Time: Aug 23, 2014 at 8:26:25 PM

Latest Report: Aug 23, 2014 at 7:00 PM


Visibility: 22 mi

Pressure: 29.57 "Hg

Humidity: 80%

Dew point: 38 °F

Location of IttoqqortoormiitLocation

Historic Weather in Ittoqqortoormiit — Graph

°F

Ittoqqortoormiit temperature yesterday

Maximum temperature yesterday: 58 °F (at 4:00 PM)
Minimum temperature yesterday: 47 °F (at 8:00 AM)
Average temperature yesterday: 53 °F

Past Weeks' High & Low Weather Summary

 TemperatureHumidityPressure
High58 °F (Aug 22, 4:00 PM)99% (Aug 23, 6:00 AM)30.28 "Hg (Aug 23, 6:00 AM)
Low38 °F (Aug 23, 4:00 AM)30% (Aug 17, 8:00 AM)29.57 "Hg (Aug 23, 7:00 PM)
Average46 °F64%30.00 "Hg
* Reported Aug 8 7:00 PM — Aug 23 7:00 PM, Ittoqqortoormiit, Weather by CustomWeather, © 2014

Note: Actual official high and low records may vary slightly from our data, if they occured in-between our weather recording intervals... More about our weather records

Advertising

Ittoqqortoormiit weather history for previous 24 hours

 ConditionsComfort  
Time TempWeatherWind HumidityBarometerVisibility
7:00 PM
Aug 23
44 °FSunny.16 mph80%29.57 "Hg22 mi
6:00 PM43 °FPartly sunny.17 mph85%29.57 "Hg19 mi
5:00 PM44 °FOvercast.16 mph83%29.58 "HgN/A
4:00 PM44 °FOvercast.12 mph80%29.58 "Hg22 mi
3:00 PM46 °FOvercast.12 mph77%29.58 "Hg22 mi
2:00 PM45 °FOvercast.16 mph79%29.59 "Hg22 mi
1:00 PM44 °FOvercast.15 mph82%29.58 "Hg22 mi
12:00 PM44 °FPartly sunny.18 mph82%29.59 "Hg22 mi
11:00 AM44 °FSunny.14 mph80%29.60 "Hg22 mi
10:00 AM42 °FSunny.17 mph85%29.60 "Hg19 mi
9:00 AM41 °FSunny.20 mph90%29.61 "Hg19 mi
8:00 AM40 °FSunny.16 mph95%29.63 "Hg14 mi
7:00 AM38 °FPartly sunny.21 mph97%29.62 "Hg7 mi
6:00 AM38 °FFog.22 mph99%29.64 "Hg3 mi
5:00 AM39 °FLow clouds.17 mph98%29.67 "Hg12 mi
4:00 AM38 °FLow clouds.25 mph98%29.67 "Hg2 mi
3:00 AM38 °FFog.21 mph95%29.72 "Hg6 mi
2:00 AM39 °FPassing clouds.18 mph92%29.76 "Hg9 mi
1:00 AM46 °FClear.10 mph64%29.78 "Hg31 mi
12:00 AM48 °FClear.7 mph61%29.81 "Hg31 mi
11:00 PM
Aug 22
52 °FClear.8 mph48%29.84 "Hg31 mi
10:00 PM52 °FSunny.7 mph49%29.86 "Hg31 mi
9:00 PM55 °FSunny.9 mph43%29.88 "Hg31 mi
8:00 PM56 °FSunny.9 mph39%29.89 "Hg31 mi
Weather by CustomWeather, © 2014

See weather overviewHow to use our weather pages